Location: Erdweis
(48.5167°N, 15.3500°E)
Time: 11:26:46
(UTC+00:00)

NOSS 2-2 (D) - Pass Details

Date: 18 September 2020
Orbit: 469 x 1739 km, 63.3° (Epoch: 23 October)

Event Time Altitude Azimuth Distance (km) Brightness Sun altitude
Rises 19:21:28 0° 239° (WSW) 2,501 7.1 -22.4°
Reaches altitude 10° 19:23:33 10° 246° (WSW) 1,643 6.2 -22.7°
Maximum altitude 19:26:57 43° 320° (NW) 725 4.3 -23.2°
Drops below altitude 10° 19:30:54 10° 33° (NNE) 1,905 6.0 -23.8°
Enters shadow 19:32:21 - 38° (NE) 2,502 6.6 -24.0°
